Wind_Speed
5 6 7 8 9 10 11 12 13 14 14 15 15 16 16 17 17 17 16 15 13 13 12 10 8 7 6 5 4 4 6 7 9 11 13 15 17 19 21 22 24 24 25
5 6 7 8 9 10 10 12 13 14 14 15 16 16 16 17 17 17 17 16 15 13 13 12 10 9 8 7 6 7 7 8 10 11 13 15 17 19 21 22 24 25 25
5 6 7 8 9 10 11 12 13 14 15 16 16 17 17 17 17 17 17 17 16 15 14 14 13 11 10 9 9 8 9 10 11 12 14 15 17 19 20 22 24 25 25
6 7 8 9 10 11 12 13 14 15 15 16 17 18 18 18 18 18 18 18 18 17 16 16 15 14 13 13 12 12 11 12 13 14 15 16 18 19 20 22 24 25 25
7 9 10 11 11 12 13 14 15 16 17 18 19 19 19 19 19 20 20 20 20 19 19 19 18 16 16 15 15 15 15 15 15 16 17 18 19 21 21 22 24 26 26
10 11 11 12 13 14 15 16 16 17 18 19 20 21 21 21 21 21 21 22 22 22 22 22 21 20 19 18 18 17 18 18 18 19 19 20 21 22 23 24 25 26 27
12 13 14 15 16 16 17 18 19 20 20 21 22 23 23 23 23 24 24 24 25 25 25 24 24 24 23 22 22 21 21 21 21 22 22 23 23 24 25 26 26 28 28
15 16 17 18 19 19 20 20 21 22 23 24 25 26 26 26 27 27 28 28 29 28 28 27 26 26 26 26 25 26 26 25 24 24 25 26 26 27 27 28 29 29 29
18 19 20 21 21 22 23 23 24 25 26 27 28 28 29 29 30 31 32 32 32 32 31 31 30 30 30 30 29 29 29 30 29 28 28 28 29 30 30 31 32 32 32
21 22 22 23 24 25 26 26 27 28 29 30 31 31 32 32 33 35 35 35 35 35 34 34 34 34 34 34 33 33 33 33 33 32 32 32 32 33 34 34 34 34 34
23 24 25 26 27 28 29 30 30 31 32 33 34 35 35 36 37 38 38 38 38 37 37 37 37 37 38 38 37 37 36 37 37 36 36 36 36 36 36 37 37 37 37
27 28 29 30 30 31 32 33 33 34 35 36 37 38 38 39 39 40 40 41 41 40 39 39 40 41 41 41 41 41 41 41 40 40 39 39 39 40 40 40 40 40 40
30 31 32 33 34 34 35 35 36 37 38 39 40 41 41 41 42 42 43 43 44 44 43 43 43 44 44 44 45 45 44 45 44 44 43 43 42 43 44 44 42 42 42
34 34 35 36 37 37 38 38 39 40 41 41 42 43 44 44 45 45 46 47 48 48 47 47 47 47 47 47 47 48 48 48 47 47 47 46 45 45 45 46 45 45 44
37 38 38 39 39 40 40 41 41 42 43 44 45 46 47 47 48 49 50 50 51 51 51 51 52 51 51 49 49 50 50 51 50 50 49 48 47 48 48 48 48 47 46
40 40 40 41 41 42 42 43 44 45 45 47 48 49 50 50 51 52 53 54 55 55 55 55 55 55 53 52 51 52 53 53 52 52 51 51 50 50 50 50 49 49 48
42 42 43 43 43 44 45 46 46 47 48 49 50 51 53 53 54 56 57 58 59 59 58 57 57 57 55 54 53 53 54 54 54 54 53 53 53 52 52 52 51 51 50
44 44 44 45 46 47 48 49 49 50 51 52 53 55 56 57 58 60 61 61 61 61 61 59 58 58 56 54 54 55 55 55 55 54 54 54 54 54 54 54 53 53 52
46 46 47 47 48 49 50 51 52 52 53 55 57 58 60 61 61 62 63 63 63 63 62 60 59 58 57 56 55 56 55 54 54 53 53 53 53 53 53 53 53 53 52
48 49 49 50 51 52 53 54 55 56 57 58 60 61 63 64 64 64 64 65 64 64 63 61 59 59 58 57 55 55 54 53 52 52 52 52 52 53 53 51 51 52 52
50 51 52 53 53 54 55 57 58 59 60 62 63 65 66 66 66 65 65 65 65 64 63 62 60 59 58 56 54 52 52 51 50 51 50 50 50 51 52 51 49 50 50
52 53 54 55 56 57 58 60 61 62 63 65 66 67 67 67 67 67 66 65 65 65 63 61 60 58 56 53 51 50 49 49 47 47 47 47 47 48 50 51 49 49 50
54 55 56 57 59 60 61 62 64 65 66 67 68 68 68 68 68 67 66 65 64 63 61 58 56 54 52 50 49 48 47 46 45 45 46 46 46 46 48 50 50 48 48
56 58 59 60 62 63 64 65 66 67 68 68 69 69 68 68 68 67 66 63 61 59 57 55 53 51 49 48 47 46 46 45 45 44 45 46 45 45 47 49 51 50 46
59 61 62 63 64 65 66 67 68 68 68 68 68 68 68 67 66 65 62 59 58 56 55 53 50 49 48 46 45 44 44 44 44 44 44 45 45 45 46 47 49 51 49
62 63 64 65 66 67 68 68 68 68 68 67 67 67 66 64 63 61 59 57 56 54 52 50 49 48 46 45 44 43 43 44 44 44 43 43 44 45 45 45 47 49 50
Wind_Direction
6 3 1 2 3 5 6 6 7 7 7 5 4 3 3 3 4 4 5 6 5 4 3 3 357 347 335 322 302 273 250 239 234 229 228 227 227 227 226 224 223 225 225
355 355 355 357 358 358 357 355 356 357 358 360 359 358 357 357 358 358 358 357 357 356 354 351 347 337 323 313 299 283 267 255 245 238 234 232 231 231 230 229 228 228 228
340 344 346 348 348 348 347 347 347 347 348 349 350 350 349 349 350 350 350 349 348 345 343 341 338 331 320 310 300 290 277 266 258 249 241 237 235 234 233 231 230 229 229
329 332 334 337 338 338 338 338 338 339 340 341 342 342 341 341 341 340 340 340 338 336 334 331 328 323 317 308 300 292 284 274 264 256 250 246 241 238 236 233 231 230 232
320 322 325 327 329 330 329 330 330 330 332 333 334 334 333 333 333 333 332 331 330 328 326 324 322 316 311 307 301 294 286 279 271 262 256 252 249 245 242 238 235 234 234
312 314 316 318 320 321 322 323 323 324 325 326 328 328 327 327 327 327 326 324 322 321 318 316 314 311 307 302 298 293 287 279 273 267 261 255 253 251 248 244 240 236 237
305 307 309 310 311 312 314 316 317 317 318 320 322 322 321 320 321 320 319 318 316 314 312 309 306 305 302 298 295 292 288 282 274 269 263 258 254 252 251 247 244 240 239
299 302 304 306 307 308 309 310 311 312 313 315 317 316 315 314 314 313 313 312 312 310 307 304 301 298 297 295 291 289 287 283 277 271 266 261 257 254 252 250 248 245 242
296 298 301 303 304 304 305 306 307 308 309 311 312 312 311 311 311 311 310 309 308 306 303 300 297 294 292 291 289 287 284 282 278 272 268 264 261 256 253 252 250 247 244
295 296 298 299 300 301 303 303 304 305 306 307 309 308 307 307 308 309 308 307 306 304 302 298 295 292 290 288 286 284 283 280 277 272 268 266 263 259 255 254 252 249 246
294 295 297 298 298 300 300 301 302 303 304 305 307 307 306 306 307 307 307 306 305 304 301 297 293 290 288 286 284 283 281 279 277 273 268 265 263 260 257 255 254 251 247
293 294 296 297 297 298 298 299 300 301 302 304 305 306 305 304 306 306 306 305 304 302 299 296 293 290 288 285 282 281 280 278 275 272 269 265 262 260 259 257 255 252 250
292 294 295 295 295 296 297 297 298 299 300 302 303 304 304 303 304 304 304 304 303 301 298 295 292 290 288 285 282 280 278 277 275 272 269 265 261 259 258 256 254 253 251
292 293 294 294 294 295 296 296 297 298 298 300 301 302 302 301 302 303 303 303 302 301 298 295 293 291 288 284 281 279 277 276 274 272 269 265 261 258 256 255 254 252 251
292 292 293 293 294 294 294 295 296 297 298 299 300 301 301 301 301 302 303 302 302 300 297 295 293 292 289 284 280 277 275 274 273 270 268 265 261 258 256 254 252 251 250
291 292 292 293 293 293 293 294 295 296 297 298 299 300 301 301 301 302 302 302 302 300 298 295 294 292 289 283 279 276 274 272 271 269 266 263 260 258 255 253 251 250 250
289 290 291 292 292 293 293 294 295 296 297 298 299 301 301 302 302 302 302 302 302 300 298 295 293 292 288 283 279 275 273 271 269 268 264 260 257 256 253 251 249 248 248
288 288 289 290 291 292 293 294 295 296 297 298 299 301 302 302 302 302 302 302 301 300 298 295 293 291 287 283 280 275 273 272 269 266 262 258 255 253 252 250 249 247 246
287 287 288 289 290 291 292 293 295 296 297 298 299 300 302 302 302 301 301 301 301 300 298 295 293 291 288 283 280 276 273 271 268 264 261 256 254 251 250 249 248 246 245
287 288 289 290 291 292 292 293 295 296 297 298 299 300 301 302 301 301 300 301 301 300 298 295 292 290 288 284 281 277 272 270 268 264 261 257 252 249 247 247 246 244 243
287 288 289 290 291 292 293 294 295 296 296 298 299 300 301 302 302 300 300 300 300 300 297 294 292 290 288 285 281 276 272 269 267 263 259 255 251 247 245 245 244 241 240
286 287 288 290 291 292 293 294 295 296 297 298 299 300 301 301 302 301 300 299 300 299 297 294 292 290 288 284 280 275 270 266 265 262 257 253 248 245 243 242 241 240 238
286 288 289 290 291 293 293 294 295 296 297 298 299 300 300 300 301 301 300 299 298 297 296 294 292 290 287 284 280 275 270 265 262 260 256 252 248 245 243 241 239 238 237
286 288 289 290 291 293 294 295 295 296 297 298 299 300 300 300 300 301 301 300 298 297 295 294 292 289 286 283 279 275 271 267 262 259 255 251 247 245 243 241 239 236 235
287 288 290 291 292 293 294 295 296 296 297 298 298 299 300 300 300 301 300 300 299 296 294 292 290 287 284 282 279 275 271 267 262 259 255 252 248 245 243 241 238 235 233
288 289 291 292 293 294 295 295 296 296 297 298 298 299 300 300 301 301 300 299 299 297 294 291 288 286 284 281 279 274 270 267 263 259 254 251 247 244 241 239 236 234 231
Height
5859 5858 5857 5855 5854 5852 5850 5848 5846 5843 5841 5838 5836 5833 5830 5828 5825 5822 5820 5817 5815 5813 5811 5810 5808 5807 5806 5806 5805 5805 5805 5806 5807 5808 5809 5810 5812 5814 5816 5818 5821 5823 5826
5859 5857 5856 5855 5853 5851 5849 5847 5845 5843 5841 5838 5836 5833 5830 5827 5825 5822 5820 5817 5815 5813 5811 5809 5808 5806 5805 5805 5804 5804 5804 5804 5805 5805 5806 5807 5808 5810 5811 5814 5816 5818 5821
5857 5856 5855 5853 5852 5850 5848 5846 5844 5842 5840 5837 5835 5832 5829 5827 5824 5821 5819 5816 5814 5812 5810 5808 5806 5805 5804 5803 5802 5802 5801 5801 5802 5802 5803 5803 5804 5806 5807 5809 5811 5813 5815
5856 5855 5853 5852 5850 5848 5846 5844 5842 5840 5838 5835 5833 5830 5828 5825 5822 5820 5817 5815 5812 5810 5808 5806 5804 5803 5802 5801 5800 5799 5798 5798 5798 5799 5799 5800 5800 5801 5803 5804 5806 5807 5810
5854 5853 5851 5850 5848 5846 5844 5842 5840 5837 5835 5833 5830 5828 5825 5822 5820 5817 5814 5812 5809 5807 5805 5803 5801 5800 5798 5797 5796 5795 5795 5794 5794 5794 5795 5795 5796 5797 5797 5798 5800 5802 5804
5851 5850 5848 5847 5845 5843 5841 5839 5837 5834 5832 5829 5826 5823 5821 5818 5816 5813 5811 5808 5806 5803 5801 5799 5797 5796 5794 5793 5792 5791 5790 5790 5789 5789 5789 5790 5790 5791 5791 5792 5793 5795 5797
5848 5847 5845 5843 5841 5840 5837 5835 5833 5830 5828 5825 5822 5818 5816 5813 5810 5808 5805 5803 5800 5798 5795 5793 5791 5790 5788 5787 5786 5785 5784 5784 5783 5783 5783 5783 5784 5784 5785 5786 5787 5788 5790
5844 5842 5841 5839 5837 5835 5833 5830 5828 5825 5822 5819 5816 5813 5810 5807 5804 5801 5798 5795 5793 5790 5788 5786 5784 5782 5781 5779 5779 5778 5777 5776 5776 5775 5776 5776 5776 5777 5777 5778 5779 5780 5782
5839 5838 5836 5834 5832 5830 5827 5825 5822 5819 5816 5813 5809 5806 5802 5799 5796 5793 5790 5786 5783 5780 5778 5776 5774 5773 5771 5770 5769 5769 5768 5767 5766 5766 5767 5767 5767 5768 5768 5769 5770 5772 5773
5834 5832 5830 5828 5826 5823 5821 5818 5815 5812 5809 5805 5802 5798 5794 5791 5787 5784 5780 5776 5773 5770 5767 5764 5763 5761 5760 5759 5759 5758 5757 5757 5756 5756 5756 5757 5757 5758 5759 5760 5761 5762 5763
5827 5826 5823 5821 5819 5816 5813 5810 5807 5804 5800 5797 5793 5789 5785 5781 5777 5773 5769 5765 5761 5758 5755 5752 5750 5748 5747 5746 5746 5746 5745 5745 5744 5744 5744 5745 5745 5746 5747 5748 5749 5751 5753
5820 5818 5816 5813 5811 5808 5805 5801 5798 5795 5791 5787 5783 5779 5774 5770 5766 5762 5757 5753 5749 5746 5743 5740 5737 5735 5733 5732 5731 5731 5731 5731 5731 5731 5731 5732 5733 5734 5735 5736 5737 5739 5741
5812 5809 5807 5804 5801 5798 5795 5792 5788 5785 5781 5777 5773 5769 5764 5759 5755 5750 5746 5741 5737 5733 5729 5726 5723 5720 5718 5717 5717 5716 5716 5715 5716 5716 5717 5718 5719 5720 5721 5722 5724 5726 5728
5802 5800 5797 5794 5791 5788 5785 5781 5778 5774 5770 5766 5762 5757 5753 5748 5743 5738 5733 5729 5724 5719 5715 5712 5708 5705 5702 5701 5701 5700 5699 5699 5699 5699 5700 5702 5703 5704 5706 5708 5709 5711 5714
5792 5789 5786 5784 5781 5777 5774 5770 5767 5763 5758 5755 5750 5745 5741 5736 5730 5725 5720 5715 5710 5705 5701 5697 5693 5689 5686 5684 5683 5682 5682 5681 5681 5682 5683 5684 5686 5688 5690 5692 5694 5696 5699
5780 5778 5775 5772 5769 5766 5762 5759 5755 5751 5746 5741 5737 5732 5727 5722 5717 5711 5706 5700 5694 5689 5684 5680 5676 5672 5668 5666 5665 5664 5663 5663 5663 5663 5664 5666 5668 5670 5673 5675 5678 5681 5684
5769 5766 5763 5760 5757 5753 5750 5746 5742 5738 5733 5728 5723 5718 5712 5707 5702 5696 5690 5684 5678 5672 5667 5662 5658 5654 5650 5647 5646 5645 5644 5644 5643 5644 5645 5646 5648 5651 5654 5658 5661 5664 5668
5757 5754 5751 5747 5744 5740 5737 5733 5729 5724 5720 5715 5709 5703 5697 5691 5686 5680 5673 5667 5661 5655 5649 5644 5639 5635 5631 5629 5626 5625 5624 5623 5623 5624 5625 5626 5628 5632 5635 5639 5643 5647 5651
5743 5740 5737 5734 5730 5727 5723 5719 5714 5710 5705 5700 5694 5688 5681 5675 5669 5662 5655 5649 5643 5637 5631 5625 5621 5616 5612 5610 5607 5605 5604 5603 5603 5604 5605 5607 5609 5612 5616 5620 5624 5629 5633
5729 5726 5723 5719 5716 5712 5708 5703 5699 5694 5689 5684 5678 5672 5665 5658 5652 5645 5638 5631 5624 5618 5612 5607 5602 5598 5593 5590 5587 5585 5584 5584 5584 5584 5585 5587 5590 5593 5597 5601 5606 5610 5616
5714 5711 5708 5704 5700 5696 5692 5687 5682 5677 5672 5667 5660 5654 5647 5640 5633 5626 5620 5613 5606 5599 5593 5588 5583 5578 5574 5570 5567 5565 5564 5564 5565 5565 5566 5569 5571 5575 5579 5583 5588 5593 5598
5699 5696 5692 5688 5684 5680 5675 5670 5665 5660 5654 5648 5642 5635 5627 5620 5614 5607 5600 5593 5586 5580 5573 5568 5563 5559 5555 5551 5548 5546 5545 5546 5546 5546 5548 5551 5554 5557 5561 5566 5571 5576 5582
5683 5679 5676 5671 5667 5663 5658 5652 5647 5641 5635 5629 5622 5615 5608 5601 5594 5587 5580 5574 5567 5561 5554 5549 5544 5541 5537 5533 5530 5529 5528 5528 5529 5529 5531 5534 5537 5540 5544 5549 5554 5560 5566
5666 5662 5658 5654 5649 5645 5639 5634 5628 5622 5615 5608 5602 5595 5588 5581 5574 5567 5560 5554 5548 5542 5536 5531 5527 5523 5520 5517 5515 5513 5511 5511 5512 5513 5515 5517 5521 5524 5528 5533 5538 5544 5550
5648 5644 5640 5635 5631 5625 5620 5614 5608 5601 5595 5588 5581 5574 5567 5560 5554 5547 5541 5535 5529 5524 5519 5514 5510 5506 5504 5501 5499 5497 5496 5496 5496 5497 5499 5502 5505 5509 5513 5517 5523 5528 5535
5630 5626 5621 5616 5611 5605 5600 5594 5588 5581 5574 5568 5561 5554 5548 5541 5535 5529 5523 5517 5511 5506 5501 5497 5493 5490 5487 5485 5483 5481 5481 5480 5481 5482 5483 5486 5490 5494 5498 5503 5508 5514 5520